User: anonymous
Location: Albany
(35.0000°S, 118.0000°E)
Time: 22:32:00
(UTC-04:00)
Language:

TRMM - Orbit

View from above orbital plane
View from above orbital plane
View from above satellite
View from above satellite

Ground track
Ground track

The orbit data is extracted from the following two-line orbital elements,

1 25063U 97074A   14203.60943560  .00007235  00000-0  10066-3 0  7009
2 25063 034.9550 265.9675 0000526 223.9707 262.1809 15.56167487950212
Epoch (UTC): 22 July 2014 14:37:35
Eccentricity: 0.0000526
inclination: 34.9550°
perigee height: 398 km
apogee height: 399 km
right ascension of ascending node: 265.9675°
argument of perigee: 223.9707°
revolutions per day: 15.56167487
mean anomaly at epoch: 262.1809°
orbit number at epoch: 95021

The dashed part of the orbit path shows where the satellite is in the earth's shadow,  

DLR